Weather History for Stuttgart, AR

Change the Weather History Date:

Monday, August 5, 2013

  Actual Average Record
Temperature  
Mean Temperature 86 °F -  
Max Temperature 96 °F 88 °F 100 °F (2010)
Min Temperature 75 °F 70 °F 66 °F (2014)
Cooling Degree Days 20    
Growing Degree Days 36 (Base 50)    
Moisture  
Dew Point 73 °F    
Average Humidity 72    
Maximum Humidity 89    
Minimum Humidity 50    
Precipitation  
Precipitation 0.01 in - - ()
Sea Level Pressure  
Sea Level Pressure 29.99 in    
Wind  
Wind Speed 7 mph (SE)    
Max Wind Speed 15 mph    
Max Gust Speed 17 mph    
Visibility 10 miles    
Events Thunderstorm    
Averages and records for this station are not official NWS values.
T = Trace of Precipitation, MM = Missing Value Source: NWS Daily Summary

Daily Weather History Graph

Daily Weather History Graph

Search for Another Location

Airport:

Trip Planner

Search our weather history database for the weather conditions in past years. The results will help you decide how hot, cold, wet, or windy it might be!

Date:

Astronomy

Aug. 05, 2013 Rise Set
Actual Time 6:19 AM CDT 8:04 PM CDT
Civil Twilight 5:52 AM CDT 8:31 PM CDT
Nautical Twilight 5:19 AM CDT 9:04 PM CDT
Astronomical Twilight 4:44 AM CDT 9:39 PM CDT
Moon 5:14 AM CDT (8/5) 7:06 PM CDT (8/5)
Length of Visible Light 14h 39m
Length of Day
13h 44m
Waning Crescent, 1% of the Moon is Illuminated
Aug 5
Waning Crescent
Aug 6
New
Aug 14
First Quarter
Aug 20
Full
Aug 28
Last Quarter

Hourly Weather History & Observations

Time (CDT) Temp. Heat Index Dew Point Humidity Pressure Visibility Wind Dir Wind Speed Gust Speed Precip Events Conditions
12:15 AM 77.0 °F - 71.6 °F 83% 30.07 in 10.0 mi East 5.8 mph - N/A   Partly Cloudy
12:35 AM 77.0 °F - 71.6 °F 83% 30.06 in 10.0 mi East 5.8 mph - N/A   Scattered Clouds
12:55 AM 77.0 °F - 71.6 °F 83% 30.06 in 10.0 mi East 4.6 mph - N/A   Partly Cloudy
1:15 AM 77.0 °F - 71.6 °F 83% 30.06 in 10.0 mi ENE 5.8 mph - N/A   Partly Cloudy
1:35 AM 77.0 °F - 71.6 °F 83% 30.05 in 10.0 mi East 6.9 mph - N/A   Partly Cloudy
1:55 AM 77.0 °F - 71.6 °F 83% 30.05 in 10.0 mi East 4.6 mph - N/A   Clear
2:15 AM 77.0 °F - 71.6 °F 83% 30.05 in 10.0 mi ENE 5.8 mph - N/A   Clear
2:35 AM 77.0 °F - 71.6 °F 83% 30.04 in 10.0 mi East 8.1 mph - N/A   Partly Cloudy
2:55 AM 77.0 °F - 71.6 °F 83% 30.04 in 9.0 mi ENE 5.8 mph - N/A   Scattered Clouds
3:15 AM 77.0 °F - 71.6 °F 83% 30.04 in 7.0 mi ESE 5.8 mph - 0.01 in   Mostly Cloudy
3:35 AM 75.2 °F - 71.6 °F 89% 30.03 in 9.0 mi ESE 8.1 mph - 0.01 in   Mostly Cloudy
3:55 AM 77.0 °F - 71.6 °F 83% 30.03 in 10.0 mi East 5.8 mph - 0.01 in   Clear
4:15 AM 77.0 °F - 71.6 °F 83% 30.03 in 10.0 mi East 4.6 mph - N/A   Clear
4:35 AM 75.2 °F - 71.6 °F 89% 30.03 in 7.0 mi NE 4.6 mph - N/A   Partly Cloudy
4:55 AM 75.2 °F - 71.6 °F 89% 30.03 in 5.0 mi East 4.6 mph - N/A   Partly Cloudy
5:15 AM 75.2 °F - 71.6 °F 89% 30.03 in 7.0 mi ENE 4.6 mph - N/A   Scattered Clouds
5:35 AM 75.2 °F - 71.6 °F 89% 30.03 in 6.0 mi East 5.8 mph - N/A   Mostly Cloudy
5:55 AM 75.2 °F - 71.6 °F 89% 30.03 in 8.0 mi East 5.8 mph - N/A   Partly Cloudy
6:15 AM 75.2 °F - 71.6 °F 89% 30.03 in 8.0 mi East 4.6 mph - N/A   Mostly Cloudy
6:35 AM 75.2 °F - 71.6 °F 89% 30.03 in 10.0 mi ESE 8.1 mph - N/A   Mostly Cloudy
6:55 AM 75.2 °F - 71.6 °F 89% 30.03 in 9.0 mi ESE 5.8 mph - N/A   Overcast
7:15 AM 75.2 °F - 71.6 °F 89% 30.02 in 10.0 mi ESE 8.1 mph - N/A   Mostly Cloudy
7:35 AM 77.0 °F - 71.6 °F 83% 30.03 in 10.0 mi SE 6.9 mph - N/A   Mostly Cloudy
7:55 AM 77.0 °F - 71.6 °F 83% 30.02 in 10.0 mi SE 8.1 mph - N/A   Scattered Clouds
8:15 AM 77.0 °F - 71.6 °F 83% 30.02 in 10.0 mi SE 9.2 mph - N/A   Mostly Cloudy
8:35 AM 78.8 °F - 71.6 °F 78% 30.02 in 10.0 mi SE 9.2 mph - N/A   Mostly Cloudy
8:55 AM 78.8 °F - 71.6 °F 78% 30.03 in 10.0 mi SE 6.9 mph - N/A   Scattered Clouds
9:15 AM 80.6 °F 85.4 °F 73.4 °F 79% 30.02 in 10.0 mi SE 10.4 mph - N/A   Partly Cloudy
9:35 AM 80.6 °F 85.4 °F 73.4 °F 79% 30.02 in 10.0 mi SSE 9.2 mph - N/A   Clear
9:55 AM 84.2 °F 90.9 °F 73.4 °F 70% 30.02 in 10.0 mi SE 9.2 mph - N/A   Clear
10:15 AM 84.2 °F 90.9 °F 73.4 °F 70% 30.02 in 10.0 mi SSE 6.9 mph - N/A   Clear
10:35 AM 84.2 °F 90.9 °F 73.4 °F 70% 30.02 in 10.0 mi South 9.2 mph - N/A   Clear
10:55 AM 86.0 °F 93.4 °F 73.4 °F 66% 30.02 in 10.0 mi South 8.1 mph - N/A   Clear
11:15 AM 86.0 °F 95.1 °F 75.2 °F 70% 30.01 in 10.0 mi SSE 8.1 mph - N/A   Clear
11:35 AM 89.6 °F 99.8 °F 75.2 °F 62% 30.01 in 10.0 mi South 6.9 mph - N/A   Clear
11:55 AM 89.6 °F 99.8 °F 75.2 °F 62% 30.01 in 10.0 mi SW 6.9 mph - N/A   Clear
12:15 PM 91.4 °F 102.5 °F 75.2 °F 59% 30.00 in 10.0 mi SSW 5.8 mph - N/A   Clear
12:35 PM 93.2 °F 105.0 °F 75.2 °F 56% 30.00 in 10.0 mi SW 6.9 mph - N/A   Clear
12:55 PM 95.0 °F 109.7 °F 77.0 °F 56% 29.99 in 10.0 mi SW 11.5 mph - N/A   Clear
1:15 PM 93.2 °F 105.0 °F 75.2 °F 56% 29.98 in 10.0 mi WSW 11.5 mph - N/A   Clear
1:35 PM 93.2 °F 105.0 °F 75.2 °F 56% 29.98 in 10.0 mi WSW 8.1 mph - N/A   Clear
1:55 PM 93.2 °F 105.0 °F 75.2 °F 56% 29.98 in 10.0 mi WSW 6.9 mph - N/A   Partly Cloudy
2:15 PM 93.2 °F 107.2 °F 77.0 °F 59% 29.97 in 10.0 mi West 6.9 mph - N/A   Clear
2:35 PM 95.0 °F 107.4 °F 75.2 °F 53% 29.96 in 10.0 mi West 8.1 mph - N/A   Clear
2:55 PM 96.8 °F 109.6 °F 75.2 °F 50% 29.95 in 10.0 mi West 6.9 mph - N/A   Clear
3:15 PM 96.8 °F 112.2 °F 77.0 °F 53% 29.94 in 10.0 mi West 10.4 mph - N/A   Partly Cloudy
3:35 PM 96.8 °F 109.6 °F 75.2 °F 50% 29.93 in 10.0 mi West 9.2 mph - N/A   Clear
3:55 PM 96.8 °F 109.6 °F 75.2 °F 50% 29.93 in 10.0 mi West 9.2 mph - N/A   Clear
4:15 PM 96.8 °F 109.6 °F 75.2 °F 50% 29.92 in 10.0 mi West 5.8 mph - N/A   Clear
4:35 PM 96.8 °F 109.6 °F 75.2 °F 50% 29.93 in 10.0 mi West 9.2 mph - N/A   Scattered Clouds
4:55 PM 93.2 °F 105.0 °F 75.2 °F 56% 29.92 in 10.0 mi West 8.1 mph - N/A   Mostly Cloudy
5:15 PM 91.4 °F 102.5 °F 75.2 °F 59% 29.93 in 10.0 mi West 4.6 mph - N/A   Scattered Clouds
5:35 PM 89.6 °F 99.8 °F 75.2 °F 62% 29.92 in 10.0 mi NW 10.4 mph - N/A Thunderstorm Thunderstorm
5:55 PM 86.0 °F 90.4 °F 69.8 °F 58% 29.92 in 10.0 mi North 6.9 mph - N/A Thunderstorm Thunderstorm
6:15 PM 84.2 °F 88.4 °F 69.8 °F 62% 29.92 in 10.0 mi NNE 4.6 mph - N/A   Partly Cloudy
6:35 PM 84.2 °F 89.6 °F 71.6 °F 66% 29.91 in 10.0 mi NE 6.9 mph - N/A   Clear
6:55 PM 84.2 °F 90.9 °F 73.4 °F 70% 29.92 in 10.0 mi NE 4.6 mph - N/A   Clear
7:15 PM 87.8 °F 95.6 °F 73.4 °F 62% 29.92 in 10.0 mi East 4.6 mph - N/A   Clear
7:35 PM 86.0 °F 93.4 °F 73.4 °F 66% 29.92 in 10.0 mi ESE 3.5 mph - N/A   Clear
7:55 PM 84.2 °F 92.3 °F 75.2 °F 74% 29.93 in 10.0 mi ESE 4.6 mph - N/A   Clear
8:15 PM 84.2 °F 92.3 °F 75.2 °F 74% 29.93 in 10.0 mi ESE 3.5 mph - N/A   Clear
8:35 PM 82.4 °F 88.2 °F 73.4 °F 74% 29.93 in 10.0 mi Calm Calm - N/A   Clear
8:55 PM 82.4 °F 88.2 °F 73.4 °F 74% 29.93 in 10.0 mi SE 5.8 mph - N/A   Clear
9:15 PM 82.4 °F 88.2 °F 73.4 °F 74% 29.94 in 10.0 mi SE 12.7 mph 17.3 mph N/A   Clear
9:35 PM - - - N/A% 29.93 in 10.0 mi SSE 12.7 mph - N/A   Clear
9:55 PM - - - N/A% 29.94 in 10.0 mi SSE 13.8 mph 17.3 mph N/A   Clear
10:15 PM - - - N/A% 29.94 in 10.0 mi South 15.0 mph - N/A   Clear
10:35 PM - - - N/A% 29.93 in 10.0 mi South 11.5 mph - N/A   Clear
10:55 PM - - - N/A% 29.93 in 10.0 mi South 9.2 mph - N/A   Clear
11:15 PM - - - N/A% 29.93 in 10.0 mi South 11.5 mph - N/A   Clear
11:35 PM - - - N/A% 29.92 in 10.0 mi South 11.5 mph - N/A   Clear
11:55 PM - - - N/A% 29.94 in 10.0 mi South 8.1 mph - N/A   Partly Cloudy